Eau Claire, WI

6:13 AM CDT on July 21, 2017 (GMT -0500)
Chippewa Valley Regional

Weather History for KEAU - July, 2013

Change the Weather History Date:

Monday, July 15, 2013

  Actual Average Record
Temperature  
Mean Temperature 77 °F 72 °F  
Max Temperature 91 °F 83 °F 104 °F (1988)
Min Temperature 62 °F 61 °F 47 °F (1930)
Degree Days  
Heating Degree Days 0 0  
Month to date heating degree days 0 0  
Since 1 June heating degree days 63 62  
Since 1 July heating degree days 0 0  
Cooling Degree Days 12 7  
Month to date cooling degree days 139 104  
Year to date cooling degree days 261 256  
Since 1 June cooling degree days 229 224  
Growing Degree Days 26 (Base 50)    
Moisture  
Dew Point 64 °F    
Average Humidity 69    
Maximum Humidity 100    
Minimum Humidity 38    
Precipitation  
Precipitation 0.00 in 0.12 in 1.39 in (1913)
Month to date precipitation 0.14 1.87  
Year to date precipitation 26.05 15.64  
Snow  
Snow 0.00 in 0.00 in 0.00 in ()
Month to date snowfall 0.0 0.0  
Since 1 June snowfall 0.0 0.0  
Since 1 July snowfall 0.0 0.0  
Snow Depth 0.00 in    
Sea Level Pressure  
Sea Level Pressure 30.21 in    
Wind  
Wind Speed 4 mph (SSW)    
Max Wind Speed 16 mph    
Max Gust Speed 21 mph    
Visibility 8 miles    
Events      
T = Trace of Precipitation, MM = Missing Value Source: NWS Daily Summary

Daily Weather History Graph

Daily Weather History Graph

Search for Another Location

Airport or City:

Trip Planner

Search our weather history database for the weather conditions in past years. The results will help you decide how hot, cold, wet, or windy it might be!

Date:

Astronomy

Jul. 15, 2013 Rise Set
Actual Time 5:34 AM CDT 8:49 PM CDT
Civil Twilight 4:58 AM CDT 9:24 PM CDT
Nautical Twilight 4:12 AM CDT 10:11 PM CDT
Astronomical Twilight 3:14 AM CDT 11:07 PM CDT
Moon 1:15 PM CDT (7/15) No Moon Set
Length of Visible Light 16h 26m
Length of Day
15h 14m
Waxing Crescent, 45% of the Moon is Illuminated
Jul 15
Waxing Crescent
Jul 15
First Quarter
Jul 22
Full
Jul 29
Last Quarter
Aug 6
New

Hourly Weather History & Observations

Time (CDT) Temp. Heat Index Dew Point Humidity Pressure Visibility Wind Dir Wind Speed Gust Speed Precip Events Conditions
12:56 AM 66.0 °F - 64.0 °F 93% 30.21 in 7.0 mi Calm Calm - N/A   Clear
1:56 AM 64.9 °F - 63.0 °F 93% 30.21 in 6.0 mi Calm Calm - N/A   Clear
2:30 AM 64.4 °F - 64.4 °F 100% 30.22 in 1.8 mi Calm Calm - N/A   Clear
2:41 AM 64.4 °F - 62.6 °F 94% 30.22 in 3.0 mi Calm Calm - N/A   Clear
2:56 AM 64.0 °F - 63.0 °F 96% 30.21 in 4.0 mi Calm Calm - N/A   Clear
3:56 AM 64.0 °F - 63.0 °F 96% 30.21 in 4.0 mi Calm Calm - N/A   Clear
4:56 AM 63.0 °F - 62.1 °F 97% 30.22 in 4.0 mi Calm Calm - N/A   Clear
5:25 AM 62.6 °F - 62.6 °F 100% 30.23 in 2.0 mi Calm Calm - N/A   Clear
5:32 AM 62.6 °F - 62.6 °F 100% 30.23 in 3.0 mi Calm Calm - N/A   Clear
5:56 AM 63.0 °F - 61.0 °F 93% 30.22 in 3.0 mi Calm Calm - N/A   Clear
6:56 AM 66.9 °F - 64.0 °F 90% 30.24 in 5.0 mi Calm Calm - N/A   Clear
7:56 AM 73.0 °F - 64.9 °F 76% 30.24 in 10.0 mi Calm Calm - N/A   Clear
8:56 AM 78.1 °F - 66.0 °F 66% 30.25 in 10.0 mi South 4.6 mph - N/A   Clear
9:56 AM 81.0 °F 82.5 °F 64.0 °F 56% 30.25 in 10.0 mi WSW 4.6 mph - N/A   Clear
10:56 AM 84.0 °F 84.9 °F 63.0 °F 49% 30.25 in 10.0 mi South 4.6 mph - N/A   Clear
11:56 AM 88.0 °F 87.9 °F 61.0 °F 40% 30.24 in 10.0 mi South 10.4 mph 17.3 mph N/A   Clear
12:56 PM 88.0 °F 87.6 °F 60.1 °F 39% 30.23 in 10.0 mi South 12.7 mph 20.7 mph N/A   Partly Cloudy
1:56 PM 91.0 °F 91.5 °F 62.1 °F 38% 30.22 in 10.0 mi SSW 11.5 mph 17.3 mph N/A   Partly Cloudy
2:56 PM 89.1 °F 90.0 °F 63.0 °F 42% 30.21 in 10.0 mi SSW 8.1 mph 17.3 mph N/A   Clear
3:56 PM 90.0 °F 91.3 °F 64.0 °F 42% 30.20 in 10.0 mi SW 11.5 mph - N/A   Partly Cloudy
4:56 PM 90.0 °F 91.7 °F 64.9 °F 43% 30.18 in 10.0 mi South 10.4 mph 18.4 mph N/A   Partly Cloudy
5:56 PM 89.1 °F 91.0 °F 64.9 °F 45% 30.18 in 10.0 mi SSW 6.9 mph - N/A   Mostly Cloudy
6:56 PM 88.0 °F 90.3 °F 66.0 °F 48% 30.17 in 10.0 mi South 5.8 mph - N/A   Mostly Cloudy
7:56 PM 86.0 °F 88.8 °F 66.9 °F 53% 30.17 in 10.0 mi South 6.9 mph - N/A   Overcast
8:56 PM 84.0 °F 86.5 °F 66.9 °F 56% 30.17 in 10.0 mi South 3.5 mph - N/A   Partly Cloudy
9:56 PM 79.0 °F - 68.0 °F 69% 30.19 in 10.0 mi Calm Calm - N/A   Clear
10:56 PM 77.0 °F - 68.0 °F 74% 30.18 in 10.0 mi Calm Calm - N/A   Scattered Clouds
11:56 PM 75.9 °F - 69.1 °F 79% 30.18 in 10.0 mi Calm Calm - N/A   Mostly Cloudy